Find Starlink 6188

NORAD ID: 56376 Int'l Des: 2023-061 Owner: SPXS Country: US Constellation: starlink operational
LEOCIRCULAR

Live-Position

3D-Globus wird geladen...

Über Starlink 6188

Beschreibung wird geladen...

Nächste Überflüge

Passes for default location (London). Set your location on the main map for personalized predictions.

Höhenverlauf

Loading altitude history...

Zweizeiliger Elementsatz

1 56376U 23061C 26126.75441904 .00000136 00000-0 14482-4 0 9993
2 56376 43.0017 229.6592 0001229 259.4560 100.6153 15.27575398165633
Epoch: 6. Mai 2026 • Age: 12 hours

Aktueller Status

Höhe 491.4 km
Geschwindigkeit 7.62 km/s
Subsatellitenpunkt -32.58°S, 133.18°E
Startdatum 4. Mai 2023
Alter 3 years
Typ internet

Technische Details

Klassifizierung Payload
Masse 305.00 kg
Trockenmasse 290.00 kg
Gesamtmasse 305.00 kg
Länge 0.20 m
Durchmesser 2.80 m
Spannweite 9.00 m
Form Box + pan
Hersteller SPXS
Bus-Typ Starlink
Phasenstatus In Orbit
Besitzer/Staat SPXS/US

Most Searched